Data supplied by UK-AIR on 9/3/2019
All Data GMT hour ending 
Status: R =Ratified P=Provisional,P*=As supplied
,,Aberdeen Wellington Road,,,,,,,,,,,,,,,,,,,,,,,
Date,time,"Nitric oxide",status,unit,"Nitrogen dioxide",status,unit,"Nitrogen oxides as nitrogen dioxide",status,unit
 
01-01-2018,01:00,4.04413,R,ugm-3,12.55891,R,ugm-3,18.75982,R,ugm-3
01-01-2018,02:00,10.17554,R,ugm-3,16.33647,R,ugm-3,31.93875,R,ugm-3
01-01-2018,03:00,10.07770,R,ugm-3,21.26049,R,ugm-3,36.71276,R,ugm-3
01-01-2018,04:00,3.52230,R,ugm-3,14.46848,R,ugm-3,19.86927,R,ugm-3
01-01-2018,05:00,4.92470,R,ugm-3,11.25914,R,ugm-3,18.81025,R,ugm-3
01-01-2018,06:00,6.32710,R,ugm-3,11.98331,R,ugm-3,21.68473,R,ugm-3
01-01-2018,07:00,9.13190,R,ugm-3,23.51758,R,ugm-3,37.51963,R,ugm-3
01-01-2018,08:00,6.71847,R,ugm-3,19.60325,R,ugm-3,29.90476,R,ugm-3
01-01-2018,09:00,9.19713,R,ugm-3,17.36601,R,ugm-3,31.46808,R,ugm-3
01-01-2018,10:00,5.44653,R,ugm-3,12.77878,R,ugm-3,21.13001,R,ugm-3
01-01-2018,11:00,11.61056,R,ugm-3,18.35542,R,ugm-3,36.15803,R,ugm-3
01-01-2018,12:00,17.44845,R,ugm-3,25.44073,R,ugm-3,52.19465,R,ugm-3
01-01-2018,13:00,11.54533,R,ugm-3,20.06919,R,ugm-3,37.77178,R,ugm-3
01-01-2018,14:00,15.16548,R,ugm-3,25.15902,R,ugm-3,48.41243,R,ugm-3
01-01-2018,15:00,21.68826,R,ugm-3,26.95809,R,ugm-3,60.21296,R,ugm-3
01-01-2018,16:00,30.33095,R,ugm-3,39.57654,R,ugm-3,86.08334,R,ugm-3
01-01-2018,17:00,12.06715,R,ugm-3,31.37218,R,ugm-3,49.87489,R,ugm-3
01-01-2018,18:00,6.09880,R,ugm-3,24.43647,R,ugm-3,33.78784,R,ugm-3
01-01-2018,19:00,6.29449,R,ugm-3,20.30378,R,ugm-3,29.95519,R,ugm-3
01-01-2018,20:00,8.70792,R,ugm-3,25.12584,R,ugm-3,38.47779,R,ugm-3
01-01-2018,21:00,6.03358,R,ugm-3,18.23278,R,ugm-3,27.48414,R,ugm-3
01-01-2018,22:00,3.88106,R,ugm-3,14.17054,R,ugm-3,20.12141,R,ugm-3
01-01-2018,23:00,5.12039,R,ugm-3,14.13616,R,ugm-3,21.98731,R,ugm-3
01-01-2018,24:00,6.78370,R,ugm-3,13.50211,R,ugm-3,23.90364,R,ugm-3
02-01-2018,01:00,4.87112,R,ugm-3,11.02158,R,ugm-3,18.49052,R,ugm-3
02-01-2018,02:00,1.60921,R,ugm-3,7.14765,R,ugm-3,9.61507,R,ugm-3
02-01-2018,03:00,2.02238,R,ugm-3,7.38823,R,ugm-3,10.48917,R,ugm-3
02-01-2018,04:00,1.79405,R,ugm-3,7.78876,R,ugm-3,10.53960,R,ugm-3
02-01-2018,05:00,8.83977,R,ugm-3,13.37480,R,ugm-3,26.92892,R,ugm-3
02-01-2018,06:00,3.65334,R,ugm-3,14.11592,R,ugm-3,19.71762,R,ugm-3
02-01-2018,07:00,24.75788,R,ugm-3,31.42834,R,ugm-3,69.38988,R,ugm-3
02-01-2018,08:00,35.16336,R,ugm-3,47.64699,R,ugm-3,101.56339,R,ugm-3
02-01-2018,09:00,39.76265,R,ugm-3,44.67957,R,ugm-3,105.64812,R,ugm-3
02-01-2018,10:00,40.15408,R,ugm-3,42.26395,R,ugm-3,103.83268,R,ugm-3
02-01-2018,11:00,51.86433,R,ugm-3,53.85971,R,ugm-3,133.38390,R,ugm-3
02-01-2018,12:00,25.99740,R,ugm-3,40.31950,R,ugm-3,80.18163,R,ugm-3
02-01-2018,13:00,22.18097,R,ugm-3,31.44610,R,ugm-3,65.45645,R,ugm-3
02-01-2018,14:00,16.08120,R,ugm-3,31.41921,R,ugm-3,56.07671,R,ugm-3
02-01-2018,15:00,16.89668,R,ugm-3,23.56267,R,ugm-3,49.47055,R,ugm-3
02-01-2018,16:00,13.56954,R,ugm-3,22.05806,R,ugm-3,42.86439,R,ugm-3
02-01-2018,17:00,15.26573,R,ugm-3,20.86927,R,ugm-3,44.27640,R,ugm-3
02-01-2018,18:00,31.18384,R,ugm-3,43.25968,R,ugm-3,91.07422,R,ugm-3
02-01-2018,19:00,20.97406,R,ugm-3,33.39752,R,ugm-3,65.55730,R,ugm-3
02-01-2018,20:00,29.06359,R,ugm-3,48.42696,R,ugm-3,92.99051,R,ugm-3
02-01-2018,21:00,25.60597,R,ugm-3,45.05483,R,ugm-3,84.31678,R,ugm-3
02-01-2018,22:00,12.10168,R,ugm-3,41.10150,R,ugm-3,59.65715,R,ugm-3
02-01-2018,23:00,16.79882,R,ugm-3,40.80804,R,ugm-3,66.56588,R,ugm-3
02-01-2018,24:00,22.86597,R,ugm-3,48.44925,R,ugm-3,83.50992,R,ugm-3
03-01-2018,01:00,35.75615,R,ugm-3,64.25147,R,ugm-3,119.07680,R,ugm-3
03-01-2018,02:00,16.83410,R,ugm-3,54.93976,R,ugm-3,80.75168,R,ugm-3
03-01-2018,03:00,8.48230,R,ugm-3,33.43798,R,ugm-3,46.44399,R,ugm-3
03-01-2018,04:00,5.02413,R,ugm-3,18.06504,R,ugm-3,25.76860,R,ugm-3
03-01-2018,05:00,4.40427,R,ugm-3,9.28291,R,ugm-3,16.03603,R,ugm-3
03-01-2018,06:00,9.23266,R,ugm-3,19.63007,R,ugm-3,33.78661,R,ugm-3
03-01-2018,07:00,19.99865,R,ugm-3,25.56281,R,ugm-3,56.22697,R,ugm-3
03-01-2018,08:00,145.76503,R,ugm-3,90.81310,R,ugm-3,314.31635,R,ugm-3
03-01-2018,09:00,251.63063,R,ugm-3,115.57516,R,ugm-3,501.40342,R,ugm-3
03-01-2018,10:00,166.80765,R,ugm-3,102.21865,R,ugm-3,357.98681,R,ugm-3
03-01-2018,11:00,263.17960,R,ugm-3,121.01333,R,ugm-3,524.54977,R,ugm-3
03-01-2018,12:00,263.44060,R,ugm-3,107.60278,R,ugm-3,511.53940,R,ugm-3
03-01-2018,13:00,205.04324,R,ugm-3,112.12291,R,ugm-3,426.51816,R,ugm-3
03-01-2018,14:00,232.67596,R,ugm-3,133.89747,R,ugm-3,490.66230,R,ugm-3
03-01-2018,15:00,304.80811,R,ugm-3,119.61344,R,ugm-3,586.97936,R,ugm-3
03-01-2018,16:00,283.24350,R,ugm-3,122.57333,R,ugm-3,556.87397,R,ugm-3
03-01-2018,17:00,399.51623,R,ugm-3,144.84224,R,ugm-3,757.42525,R,ugm-3
03-01-2018,18:00,265.98529,R,ugm-3,111.66857,R,ugm-3,519.50699,R,ugm-3
03-01-2018,19:00,307.22231,R,ugm-3,105.32189,R,ugm-3,576.38952,R,ugm-3
03-01-2018,20:00,108.05143,R,ugm-3,66.03911,R,ugm-3,231.71565,R,ugm-3
03-01-2018,21:00,83.71376,R,ugm-3,57.76964,R,ugm-3,186.12894,R,ugm-3
03-01-2018,22:00,46.32640,R,ugm-3,44.95108,R,ugm-3,115.98389,R,ugm-3
03-01-2018,23:00,25.61002,R,ugm-3,33.80171,R,ugm-3,73.06985,R,ugm-3
03-01-2018,24:00,19.70503,R,ugm-3,29.49253,R,ugm-3,59.70649,R,ugm-3
04-01-2018,01:00,8.70117,R,ugm-3,22.02444,R,ugm-3,35.36604,R,ugm-3
04-01-2018,02:00,5.52524,R,ugm-3,12.77460,R,ugm-3,21.24652,R,ugm-3
04-01-2018,03:00,5.05755,R,ugm-3,10.49972,R,ugm-3,18.25453,R,ugm-3
04-01-2018,04:00,7.89631,R,ugm-3,12.34953,R,ugm-3,24.45703,R,ugm-3
04-01-2018,05:00,19.12081,R,ugm-3,17.12497,R,ugm-3,46.44314,R,ugm-3
04-01-2018,06:00,36.77330,R,ugm-3,32.11421,R,ugm-3,88.49915,R,ugm-3
04-01-2018,07:00,82.61757,R,ugm-3,41.14210,R,ugm-3,167.82061,R,ugm-3
04-01-2018,08:00,143.60187,R,ugm-3,57.61514,R,ugm-3,277.80160,R,ugm-3
04-01-2018,09:00,331.02498,R,ugm-3,83.84172,R,ugm-3,591.40627,R,ugm-3
04-01-2018,10:00,255.97742,R,ugm-3,62.05452,R,ugm-3,454.54776,R,ugm-3
04-01-2018,11:00,253.79125,R,ugm-3,101.20967,R,ugm-3,490.35083,R,ugm-3
04-01-2018,12:00,263.97162,R,ugm-3,120.04155,R,ugm-3,524.79238,R,ugm-3
04-01-2018,13:00,220.54192,R,ugm-3,109.98398,R,ugm-3,448.14355,R,ugm-3
04-01-2018,14:00,159.55763,R,ugm-3,91.64515,R,ugm-3,336.29676,R,ugm-3
04-01-2018,15:00,179.72258,R,ugm-3,107.16913,R,ugm-3,382.73990,R,ugm-3
04-01-2018,16:00,111.36405,R,ugm-3,114.55938,R,ugm-3,285.31520,R,ugm-3
04-01-2018,17:00,138.54431,R,ugm-3,91.13808,R,ugm-3,303.56973,R,ugm-3
04-01-2018,18:00,108.26426,R,ugm-3,83.05541,R,ugm-3,249.05829,R,ugm-3
04-01-2018,19:00,97.69234,R,ugm-3,102.08936,R,ugm-3,251.88219,R,ugm-3
04-01-2018,20:00,31.48734,R,ugm-3,50.20375,R,ugm-3,98.48367,R,ugm-3
04-01-2018,21:00,40.94986,R,ugm-3,49.56214,R,ugm-3,112.35106,R,ugm-3
04-01-2018,22:00,45.15905,R,ugm-3,55.41230,R,ugm-3,124.65521,R,ugm-3
04-01-2018,23:00,22.64478,R,ugm-3,39.91024,R,ugm-3,74.63176,R,ugm-3
04-01-2018,24:00,12.07287,R,ugm-3,24.04880,R,ugm-3,42.56027,R,ugm-3
05-01-2018,01:00,11.00871,R,ugm-3,22.99033,R,ugm-3,39.87012,R,ugm-3
05-01-2018,02:00,6.22232,R,ugm-3,14.19306,R,ugm-3,23.73381,R,ugm-3
05-01-2018,03:00,6.59217,R,ugm-3,13.79404,R,ugm-3,23.90190,R,ugm-3
05-01-2018,04:00,10.76939,R,ugm-3,17.22212,R,ugm-3,33.73496,R,ugm-3
05-01-2018,05:00,18.43850,R,ugm-3,21.70014,R,ugm-3,49.97212,R,ugm-3
05-01-2018,06:00,39.74885,R,ugm-3,34.25681,R,ugm-3,95.20419,R,ugm-3
05-01-2018,07:00,87.42788,R,ugm-3,48.18517,R,ugm-3,182.23938,R,ugm-3
05-01-2018,08:00,279.51467,R,ugm-3,90.65282,R,ugm-3,519.23600,R,ugm-3
05-01-2018,09:00,329.21704,R,ugm-3,95.88149,R,ugm-3,600.67392,R,ugm-3
05-01-2018,10:00,277.71977,R,ugm-3,101.92695,R,ugm-3,527.75799,R,ugm-3
05-01-2018,11:00,453.29349,R,ugm-3,133.10505,R,ugm-3,828.14537,R,ugm-3
05-01-2018,12:00,247.89182,R,ugm-3,115.99501,R,ugm-3,496.09049,R,ugm-3
05-01-2018,13:00,185.26617,R,ugm-3,96.29210,R,ugm-3,380.36294,R,ugm-3
05-01-2018,14:00,112.23012,R,ugm-3,71.07015,R,ugm-3,243.15393,R,ugm-3
05-01-2018,15:00,125.51237,R,ugm-3,71.17725,R,ugm-3,263.62687,R,ugm-3
05-01-2018,16:00,110.43522,R,ugm-3,88.49624,R,ugm-3,257.82788,R,ugm-3
05-01-2018,17:00,159.51754,R,ugm-3,91.90222,R,ugm-3,336.49236,R,ugm-3
05-01-2018,18:00,95.74968,R,ugm-3,87.71696,R,ugm-3,234.53109,R,ugm-3
05-01-2018,19:00,57.40412,R,ugm-3,67.54563,R,ugm-3,155.56405,R,ugm-3
05-01-2018,20:00,32.01446,R,ugm-3,51.25948,R,ugm-3,100.34764,R,ugm-3
05-01-2018,21:00,28.62048,R,ugm-3,42.79809,R,ugm-3,86.68221,R,ugm-3
05-01-2018,22:00,11.87897,R,ugm-3,31.70753,R,ugm-3,49.92169,R,ugm-3
05-01-2018,23:00,11.81370,R,ugm-3,30.49653,R,ugm-3,48.61062,R,ugm-3
05-01-2018,24:00,7.08169,R,ugm-3,24.94398,R,ugm-3,35.80243,R,ugm-3
06-01-2018,01:00,5.17829,R,ugm-3,24.80281,R,ugm-3,32.74275,R,ugm-3
06-01-2018,02:00,4.13393,R,ugm-3,24.79054,R,ugm-3,31.12914,R,ugm-3
06-01-2018,03:00,2.96990,R,ugm-3,18.28882,R,ugm-3,22.84260,R,ugm-3
06-01-2018,04:00,4.37326,R,ugm-3,23.70081,R,ugm-3,30.40638,R,ugm-3
06-01-2018,05:00,4.47117,R,ugm-3,19.51667,R,ugm-3,26.37237,R,ugm-3
06-01-2018,06:00,4.11217,R,ugm-3,15.78098,R,ugm-3,22.08623,R,ugm-3
06-01-2018,07:00,7.93062,R,ugm-3,18.54882,R,ugm-3,30.70893,R,ugm-3
06-01-2018,08:00,11.12897,R,ugm-3,29.88165,R,ugm-3,46.94584,R,ugm-3
06-01-2018,09:00,18.57004,R,ugm-3,43.53348,R,ugm-3,72.00715,R,ugm-3
06-01-2018,10:00,20.43031,R,ugm-3,39.47091,R,ugm-3,70.79694,R,ugm-3
06-01-2018,11:00,34.30073,R,ugm-3,43.21411,R,ugm-3,95.80783,R,ugm-3
06-01-2018,12:00,19.74495,R,ugm-3,44.35409,R,ugm-3,74.62926,R,ugm-3
06-01-2018,13:00,30.93919,R,ugm-3,50.83923,R,ugm-3,98.27866,R,ugm-3
06-01-2018,14:00,17.29723,R,ugm-3,39.58536,R,ugm-3,66.10740,R,ugm-3
06-01-2018,15:00,23.82448,R,ugm-3,53.02474,R,ugm-3,89.55511,R,ugm-3
06-01-2018,16:00,24.77093,R,ugm-3,44.41316,R,ugm-3,82.39473,R,ugm-3
06-01-2018,17:00,25.06466,R,ugm-3,51.82912,R,ugm-3,90.26106,R,ugm-3
06-01-2018,18:00,25.09730,R,ugm-3,54.95586,R,ugm-3,93.43784,R,ugm-3
06-01-2018,19:00,23.40021,R,ugm-3,48.53192,R,ugm-3,84.41174,R,ugm-3
06-01-2018,20:00,19.15749,R,ugm-3,46.71717,R,ugm-3,76.09159,R,ugm-3
06-01-2018,21:00,40.56689,R,ugm-3,65.42441,R,ugm-3,127.62611,R,ugm-3
06-01-2018,22:00,19.90813,R,ugm-3,44.50729,R,ugm-3,75.03266,R,ugm-3
06-01-2018,23:00,14.98005,R,ugm-3,30.98584,R,ugm-3,53.95494,R,ugm-3
06-01-2018,24:00,20.65876,R,ugm-3,26.41347,R,ugm-3,58.08980,R,ugm-3
07-01-2018,01:00,9.79141,R,ugm-3,20.61995,R,ugm-3,35.63324,R,ugm-3
07-01-2018,02:00,4.96098,R,ugm-3,12.63026,R,ugm-3,20.23699,R,ugm-3
07-01-2018,03:00,8.02896,R,ugm-3,16.27974,R,ugm-3,28.59063,R,ugm-3
07-01-2018,04:00,7.70258,R,ugm-3,13.75472,R,ugm-3,25.56517,R,ugm-3
07-01-2018,05:00,3.42699,R,ugm-3,9.11630,R,ugm-3,14.37095,R,ugm-3
07-01-2018,06:00,6.07067,R,ugm-3,10.65982,R,ugm-3,19.96806,R,ugm-3
07-01-2018,07:00,11.68442,R,ugm-3,16.72571,R,ugm-3,34.64156,R,ugm-3
07-01-2018,08:00,14.26282,R,ugm-3,22.60496,R,ugm-3,44.47432,R,ugm-3
07-01-2018,09:00,14.91558,R,ugm-3,22.56214,R,ugm-3,45.43238,R,ugm-3
07-01-2018,10:00,21.93276,R,ugm-3,25.26593,R,ugm-3,58.89569,R,ugm-3
07-01-2018,11:00,34.92270,R,ugm-3,32.22451,R,ugm-3,85.77190,R,ugm-3
07-01-2018,12:00,50.16466,R,ugm-3,54.38706,R,ugm-3,131.30513,R,ugm-3
07-01-2018,13:00,34.49840,R,ugm-3,39.93450,R,ugm-3,92.83131,R,ugm-3
07-01-2018,14:00,58.97693,R,ugm-3,59.53213,R,ugm-3,149.96215,R,ugm-3
07-01-2018,15:00,61.58797,R,ugm-3,72.47118,R,ugm-3,166.90475,R,ugm-3
07-01-2018,16:00,69.19263,R,ugm-3,73.36654,R,ugm-3,179.46042,R,ugm-3
07-01-2018,17:00,131.56391,R,ugm-3,102.88525,R,ugm-3,304.61377,R,ugm-3
07-01-2018,18:00,99.35017,R,ugm-3,83.75221,R,ugm-3,236.08702,R,ugm-3
07-01-2018,19:00,109.95753,R,ugm-3,82.96811,R,ugm-3,251.56731,R,ugm-3
07-01-2018,20:00,46.41128,R,ugm-3,60.99937,R,ugm-3,132.16234,R,ugm-3
07-01-2018,21:00,37.27263,R,ugm-3,53.48055,R,ugm-3,110.63112,R,ugm-3
07-01-2018,22:00,28.55828,R,ugm-3,43.19333,R,ugm-3,86.98208,R,ugm-3
07-01-2018,23:00,35.57546,R,ugm-3,44.13227,R,ugm-3,98.68054,R,ugm-3
07-01-2018,24:00,5.25472,R,ugm-3,13.07069,R,ugm-3,21.12782,R,ugm-3
08-01-2018,01:00,2.87230,R,ugm-3,5.74782,R,ugm-3,10.15196,R,ugm-3
08-01-2018,02:00,1.87135,R,ugm-3,6.27412,R,ugm-3,9.14348,R,ugm-3
08-01-2018,03:00,4.27581,R,ugm-3,7.46161,R,ugm-3,14.01777,R,ugm-3
08-01-2018,04:00,2.18687,R,ugm-3,4.66421,R,ugm-3,8.01736,R,ugm-3
08-01-2018,05:00,12.56632,R,ugm-3,18.14624,R,ugm-3,37.41433,R,ugm-3
08-01-2018,06:00,25.03472,R,ugm-3,38.20744,R,ugm-3,76.59348,R,ugm-3
08-01-2018,07:00,169.85746,R,ugm-3,85.91535,R,ugm-3,346.35983,R,ugm-3
08-01-2018,08:00,438.38501,R,ugm-3,170.44810,R,ugm-3,842.62908,R,ugm-3
08-01-2018,09:00,425.98189,R,ugm-3,154.42154,R,ugm-3,807.58466,R,ugm-3
08-01-2018,10:00,107.54811,R,ugm-3,91.49930,R,ugm-3,256.40410,R,ugm-3
08-01-2018,11:00,132.19115,R,ugm-3,80.28708,R,ugm-3,282.97734,R,ugm-3
08-01-2018,12:00,73.86384,R,ugm-3,76.53818,R,ugm-3,189.79450,R,ugm-3
08-01-2018,13:00,58.35994,R,ugm-3,76.30886,R,ugm-3,165.79286,R,ugm-3
08-01-2018,14:00,71.93810,R,ugm-3,64.86811,R,ugm-3,175.17165,R,ugm-3
08-01-2018,15:00,88.61703,R,ugm-3,80.38935,R,ugm-3,216.26690,R,ugm-3
08-01-2018,16:00,97.62561,R,ugm-3,84.37592,R,ugm-3,234.06643,R,ugm-3
08-01-2018,17:00,53.20286,R,ugm-3,59.60955,R,ugm-3,141.18613,R,ugm-3
08-01-2018,18:00,44.52067,R,ugm-3,52.80303,R,ugm-3,121.06711,R,ugm-3
08-01-2018,19:00,37.43784,R,ugm-3,38.55226,R,ugm-3,95.95615,R,ugm-3
08-01-2018,20:00,13.67607,R,ugm-3,26.42852,R,ugm-3,47.39820,R,ugm-3
08-01-2018,21:00,12.56632,R,ugm-3,13.91065,R,ugm-3,33.17874,R,ugm-3
08-01-2018,22:00,11.19545,R,ugm-3,10.91984,R,ugm-3,28.08596,R,ugm-3
08-01-2018,23:00,4.56957,R,ugm-3,8.42305,R,ugm-3,15.42963,R,ugm-3
08-01-2018,24:00,4.14525,R,ugm-3,8.26688,R,ugm-3,14.62285,R,ugm-3
09-01-2018,01:00,2.56780,R,ugm-3,6.01287,R,ugm-3,9.95011,R,ugm-3
09-01-2018,02:00,1.39271,R,ugm-3,3.64637,R,ugm-3,5.78182,R,ugm-3
09-01-2018,03:00,1.76264,R,ugm-3,4.45736,R,ugm-3,7.16004,R,ugm-3
09-01-2018,04:00,2.12170,R,ugm-3,5.92373,R,ugm-3,9.17696,R,ugm-3
09-01-2018,05:00,3.85170,R,ugm-3,8.51507,R,ugm-3,14.42093,R,ugm-3
09-01-2018,06:00,11.84888,R,ugm-3,19.54825,R,ugm-3,37.71628,R,ugm-3
09-01-2018,07:00,55.55591,R,ugm-3,48.58725,R,ugm-3,133.77180,R,ugm-3
09-01-2018,08:00,94.59520,R,ugm-3,72.32892,R,ugm-3,217.37287,R,ugm-3
09-01-2018,09:00,102.26596,R,ugm-3,73.67718,R,ugm-3,230.48280,R,ugm-3
09-01-2018,10:00,102.26596,R,ugm-3,75.54283,R,ugm-3,232.34845,R,ugm-3
09-01-2018,11:00,107.16220,R,ugm-3,83.61603,R,ugm-3,247.92911,R,ugm-3
09-01-2018,12:00,95.77030,R,ugm-3,73.95588,R,ugm-3,220.80162,R,ugm-3
09-01-2018,13:00,93.35482,R,ugm-3,66.31442,R,ugm-3,209.45648,R,ugm-3
09-01-2018,14:00,94.88897,R,ugm-3,63.25616,R,ugm-3,208.75056,R,ugm-3
09-01-2018,15:00,96.88011,R,ugm-3,58.69045,R,ugm-3,207.23788,R,ugm-3
09-01-2018,16:00,79.31896,R,ugm-3,67.76749,R,ugm-3,189.38819,R,ugm-3
09-01-2018,17:00,67.47008,R,ugm-3,57.29534,R,ugm-3,160.74802,R,ugm-3
09-01-2018,18:00,41.58533,R,ugm-3,48.67965,R,ugm-3,112.44293,R,ugm-3
09-01-2018,19:00,25.03607,R,ugm-3,32.75853,R,ugm-3,71.14663,R,ugm-3
09-01-2018,20:00,14.23171,R,ugm-3,12.66757,R,ugm-3,34.48922,R,ugm-3
09-01-2018,21:00,15.99436,R,ugm-3,20.65453,R,ugm-3,45.17887,R,ugm-3
09-01-2018,22:00,12.14266,R,ugm-3,15.66905,R,ugm-3,34.28753,R,ugm-3
09-01-2018,23:00,7.14850,R,ugm-3,10.72094,R,ugm-3,21.68182,R,ugm-3
09-01-2018,24:00,5.94076,R,ugm-3,10.75756,R,ugm-3,19.86660,R,ugm-3
10-01-2018,01:00,6.09342,R,ugm-3,15.12840,R,ugm-3,24.47151,R,ugm-3
10-01-2018,02:00,1.87155,R,ugm-3,16.82855,R,ugm-3,19.69822,R,ugm-3
10-01-2018,03:00,4.08041,R,ugm-3,22.83699,R,ugm-3,29.09353,R,ugm-3
10-01-2018,04:00,4.27627,R,ugm-3,22.03245,R,ugm-3,28.58931,R,ugm-3
10-01-2018,05:00,11.65366,R,ugm-3,20.55292,R,ugm-3,38.42161,R,ugm-3
10-01-2018,06:00,44.91718,R,ugm-3,48.25840,R,ugm-3,117.13045,R,ugm-3
10-01-2018,07:00,103.77306,R,ugm-3,58.10178,R,ugm-3,217.21825,R,ugm-3
10-01-2018,08:00,224.42270,R,ugm-3,101.97398,R,ugm-3,446.08399,R,ugm-3
10-01-2018,09:00,316.80325,R,ugm-3,109.12130,R,ugm-3,594.87950,R,ugm-3
10-01-2018,10:00,349.51183,R,ugm-3,101.57547,R,ugm-3,637.48615,R,ugm-3
10-01-2018,11:00,281.58112,R,ugm-3,96.11688,R,ugm-3,527.86858,R,ugm-3
10-01-2018,12:00,319.54528,R,ugm-3,86.15989,R,ugm-3,576.12250,R,ugm-3
10-01-2018,13:00,263.46409,R,ugm-3,93.18891,R,ugm-3,497.16154,R,ugm-3
10-01-2018,14:00,254.22604,R,ugm-3,80.02497,R,ugm-3,469.83278,R,ugm-3
10-01-2018,15:00,360.08826,R,ugm-3,104.46847,R,ugm-3,656.59611,R,ugm-3
10-01-2018,16:00,197.85105,R,ugm-3,74.59640,R,ugm-3,377.96379,R,ugm-3
10-01-2018,17:00,163.47766,R,ugm-3,97.09873,R,ugm-3,347.76097,R,ugm-3
10-01-2018,18:00,131.29136,R,ugm-3,75.20398,R,ugm-3,276.51460,R,ugm-3
10-01-2018,19:00,88.13692,R,ugm-3,73.60596,R,ugm-3,208.74734,R,ugm-3
10-01-2018,20:00,37.27865,R,ugm-3,53.36536,R,ugm-3,110.52516,R,ugm-3
10-01-2018,21:00,39.85747,R,ugm-3,59.09226,R,ugm-3,120.20620,R,ugm-3
10-01-2018,22:00,23.56846,R,ugm-3,49.73097,R,ugm-3,85.86877,R,ugm-3
10-01-2018,23:00,19.09633,R,ugm-3,36.36889,R,ugm-3,65.64953,R,ugm-3
10-01-2018,24:00,9.14013,R,ugm-3,28.89451,R,ugm-3,42.90918,R,ugm-3
11-01-2018,01:00,7.74776,R,ugm-3,25.02865,R,ugm-3,36.90838,R,ugm-3
11-01-2018,02:00,7.00781,R,ugm-3,16.34789,R,ugm-3,27.09304,R,ugm-3
11-01-2018,03:00,3.10128,R,ugm-3,6.84167,R,ugm-3,11.59690,R,ugm-3
11-01-2018,04:00,2.31780,R,ugm-3,9.50520,R,ugm-3,13.05911,R,ugm-3
11-01-2018,05:00,7.05133,R,ugm-3,18.93667,R,ugm-3,29.74856,R,ugm-3
11-01-2018,06:00,16.84485,R,ugm-3,38.71084,R,ugm-3,64.53925,R,ugm-3
11-01-2018,07:00,50.46926,R,ugm-3,60.01288,R,ugm-3,137.39801,R,ugm-3
11-01-2018,08:00,112.52752,R,ugm-3,102.40749,R,ugm-3,274.94727,R,ugm-3
11-01-2018,09:00,137.20718,R,ugm-3,102.33141,R,ugm-3,312.71282,R,ugm-3
11-01-2018,10:00,82.91845,R,ugm-3,68.44432,R,ugm-3,195.58417,R,ugm-3
11-01-2018,11:00,80.01304,R,ugm-3,67.70583,R,ugm-3,190.39078,R,ugm-3
11-01-2018,12:00,84.71393,R,ugm-3,74.36376,R,ugm-3,204.25663,R,ugm-3
11-01-2018,13:00,61.60123,R,ugm-3,68.50770,R,ugm-3,162.96160,R,ugm-3
11-01-2018,14:00,123.92064,R,ugm-3,93.20736,R,ugm-3,283.21636,R,ugm-3
11-01-2018,15:00,166.71831,R,ugm-3,104.37680,R,ugm-3,360.00798,R,ugm-3
11-01-2018,16:00,199.00427,R,ugm-3,108.52060,R,ugm-3,413.65623,R,ugm-3
11-01-2018,17:00,324.68775,R,ugm-3,127.72929,R,ugm-3,625.57690,R,ugm-3
11-01-2018,18:00,218.33015,R,ugm-3,99.91368,R,ugm-3,434.68191,R,ugm-3
11-01-2018,19:00,172.98616,R,ugm-3,85.18619,R,ugm-3,350.42794,R,ugm-3
11-01-2018,20:00,128.78475,R,ugm-3,77.42965,R,ugm-3,274.89685,R,ugm-3
11-01-2018,21:00,59.28343,R,ugm-3,51.99394,R,ugm-3,142.89392,R,ugm-3
11-01-2018,22:00,48.51056,R,ugm-3,43.80568,R,ugm-3,118.18750,R,ugm-3
11-01-2018,23:00,22.55774,R,ugm-3,39.07746,R,ugm-3,73.66550,R,ugm-3
11-01-2018,24:00,20.89284,R,ugm-3,30.18463,R,ugm-3,62.21987,R,ugm-3
12-01-2018,01:00,13.18931,R,ugm-3,25.82740,R,ugm-3,46.05073,R,ugm-3
12-01-2018,02:00,4.35291,R,ugm-3,14.09888,R,ugm-3,20.77325,R,ugm-3
12-01-2018,03:00,14.39725,R,ugm-3,17.35337,R,ugm-3,39.42884,R,ugm-3
12-01-2018,04:00,5.32143,R,ugm-3,15.08444,R,ugm-3,23.24385,R,ugm-3
12-01-2018,05:00,28.72920,R,ugm-3,28.65555,R,ugm-3,72.70637,R,ugm-3
12-01-2018,06:00,261.30510,R,ugm-3,83.07212,R,ugm-3,483.73436,R,ugm-3
12-01-2018,07:00,323.39934,R,ugm-3,106.50174,R,ugm-3,602.37382,R,ugm-3
12-01-2018,08:00,457.15334,R,ugm-3,140.05540,R,ugm-3,841.01408,R,ugm-3
12-01-2018,09:00,413.96161,R,ugm-3,135.84435,R,ugm-3,770.57663,R,ugm-3
12-01-2018,10:00,115.76560,R,ugm-3,57.40437,R,ugm-3,234.90915,R,ugm-3
12-01-2018,11:00,110.90123,R,ugm-3,51.55196,R,ugm-3,221.59814,R,ugm-3
12-01-2018,12:00,106.65714,R,ugm-3,55.68970,R,ugm-3,219.22837,R,ugm-3
12-01-2018,13:00,92.84754,R,ugm-3,49.03201,R,ugm-3,191.39625,R,ugm-3
12-01-2018,14:00,96.01428,R,ugm-3,52.79831,R,ugm-3,200.01816,R,ugm-3
12-01-2018,15:00,90.56226,R,ugm-3,51.88058,R,ugm-3,190.74078,R,ugm-3
12-01-2018,16:00,88.73404,R,ugm-3,48.68378,R,ugm-3,184.74074,R,ugm-3
12-01-2018,17:00,84.39202,R,ugm-3,57.15660,R,ugm-3,186.55588,R,ugm-3
12-01-2018,18:00,43.38762,R,ugm-3,45.25552,R,ugm-3,111.78227,R,ugm-3
12-01-2018,19:00,24.02806,R,ugm-3,26.83860,R,ugm-3,63.68110,R,ugm-3
12-01-2018,20:00,18.08634,R,ugm-3,24.50365,R,ugm-3,52.23565,R,ugm-3
12-01-2018,21:00,10.96933,R,ugm-3,19.08000,R,ugm-3,35.89940,R,ugm-3
12-01-2018,22:00,6.26819,R,ugm-3,14.13697,R,ugm-3,23.74806,R,ugm-3
12-01-2018,23:00,5.15820,R,ugm-3,9.73805,R,ugm-3,17.64718,R,ugm-3
12-01-2018,24:00,2.90557,R,ugm-3,8.09957,R,ugm-3,12.55471,R,ugm-3
13-01-2018,01:00,3.00367,R,ugm-3,6.01620,R,ugm-3,10.62176,R,ugm-3
13-01-2018,02:00,2.39423,R,ugm-3,5.33723,R,ugm-3,9.00833,R,ugm-3
13-01-2018,03:00,2.57924,R,ugm-3,5.22162,R,ugm-3,9.17639,R,ugm-3
13-01-2018,04:00,2.08951,R,ugm-3,6.98092,R,ugm-3,10.18479,R,ugm-3
13-01-2018,05:00,3.98313,R,ugm-3,7.25385,R,ugm-3,13.36123,R,ugm-3
13-01-2018,06:00,4.27696,R,ugm-3,9.92934,R,ugm-3,16.48725,R,ugm-3
13-01-2018,07:00,9.82722,R,ugm-3,18.81387,R,ugm-3,33.88206,R,ugm-3
13-01-2018,08:00,22.49487,R,ugm-3,17.13816,R,ugm-3,51.62980,R,ugm-3
13-01-2018,09:00,31.79971,R,ugm-3,36.70257,R,ugm-3,85.46145,R,ugm-3
13-01-2018,10:00,42.31255,R,ugm-3,34.44854,R,ugm-3,99.32687,R,ugm-3
13-01-2018,11:00,31.57117,R,ugm-3,31.25473,R,ugm-3,79.66318,R,ugm-3
13-01-2018,12:00,21.64600,R,ugm-3,35.43118,R,ugm-3,68.62125,R,ugm-3
13-01-2018,13:00,18.96882,R,ugm-3,27.63708,R,ugm-3,56.72220,R,ugm-3
13-01-2018,14:00,17.63023,R,ugm-3,27.97529,R,ugm-3,55.00793,R,ugm-3
13-01-2018,15:00,16.74872,R,ugm-3,28.77230,R,ugm-3,54.45331,R,ugm-3
13-01-2018,16:00,17.79347,R,ugm-3,25.96029,R,ugm-3,53.24324,R,ugm-3
13-01-2018,17:00,18.08731,R,ugm-3,21.27449,R,ugm-3,49.00798,R,ugm-3
13-01-2018,18:00,12.37381,R,ugm-3,17.58140,R,ugm-3,36.55431,R,ugm-3
13-01-2018,19:00,14.16948,R,ugm-3,21.83641,R,ugm-3,43.56265,R,ugm-3
13-01-2018,20:00,13.67975,R,ugm-3,19.46130,R,ugm-3,40.43662,R,ugm-3
13-01-2018,21:00,6.10528,R,ugm-3,16.40318,R,ugm-3,25.76448,R,ugm-3
13-01-2018,22:00,5.94204,R,ugm-3,15.79635,R,ugm-3,24.90735,R,ugm-3
13-01-2018,23:00,4.04842,R,ugm-3,15.22089,R,ugm-3,21.42839,R,ugm-3
13-01-2018,24:00,3.36280,R,ugm-3,12.18816,R,ugm-3,17.34439,R,ugm-3
14-01-2018,01:00,3.48270,R,ugm-3,15.56699,R,ugm-3,20.90706,R,ugm-3
14-01-2018,02:00,1.56722,R,ugm-3,11.24370,R,ugm-3,13.64673,R,ugm-3
14-01-2018,03:00,1.59987,R,ugm-3,10.65583,R,ugm-3,13.10893,R,ugm-3
14-01-2018,04:00,2.02432,R,ugm-3,11.87052,R,ugm-3,14.97443,R,ugm-3
14-01-2018,05:00,1.53457,R,ugm-3,10.25177,R,ugm-3,12.60474,R,ugm-3
14-01-2018,06:00,1.89372,R,ugm-3,11.61700,R,ugm-3,14.52066,R,ugm-3
14-01-2018,07:00,4.01599,R,ugm-3,12.44683,R,ugm-3,18.60459,R,ugm-3
14-01-2018,08:00,6.56272,R,ugm-3,13.48296,R,ugm-3,23.54565,R,ugm-3
14-01-2018,09:00,5.74646,R,ugm-3,12.46569,R,ugm-3,21.27680,R,ugm-3
14-01-2018,10:00,6.92187,R,ugm-3,12.12556,R,ugm-3,22.73895,R,ugm-3
14-01-2018,11:00,8.58704,R,ugm-3,13.00083,R,ugm-3,26.16744,R,ugm-3
14-01-2018,12:00,10.12160,R,ugm-3,15.03431,R,ugm-3,30.55389,R,ugm-3
14-01-2018,13:00,12.66833,R,ugm-3,16.52422,R,ugm-3,35.94871,R,ugm-3
14-01-2018,14:00,12.34182,R,ugm-3,14.30223,R,ugm-3,33.22609,R,ugm-3
14-01-2018,15:00,11.91737,R,ugm-3,12.43210,R,ugm-3,30.70514,R,ugm-3
14-01-2018,16:00,8.42378,R,ugm-3,14.20911,R,ugm-3,27.12540,R,ugm-3
14-01-2018,17:00,7.83608,R,ugm-3,12.89181,R,ugm-3,24.90696,R,ugm-3
14-01-2018,18:00,7.37897,R,ugm-3,12.13055,R,ugm-3,23.44481,R,ugm-3
14-01-2018,19:00,6.62802,R,ugm-3,10.66021,R,ugm-3,20.82303,R,ugm-3
14-01-2018,20:00,5.55056,R,ugm-3,9.28716,R,ugm-3,17.79789,R,ugm-3
14-01-2018,21:00,3.42828,R,ugm-3,8.81026,R,ugm-3,14.06689,R,ugm-3
14-01-2018,22:00,3.42828,R,ugm-3,7.09601,R,ugm-3,12.35264,R,ugm-3
14-01-2018,23:00,3.55889,R,ugm-3,7.80330,R,ugm-3,13.26019,R,ugm-3
14-01-2018,24:00,3.06913,R,ugm-3,4.57115,R,ugm-3,9.27709,R,ugm-3
15-01-2018,01:00,1.48023,R,ugm-3,4.45277,R,ugm-3,6.72242,R,ugm-3
15-01-2018,02:00,1.61084,R,ugm-3,4.38696,R,ugm-3,6.85687,R,ugm-3
15-01-2018,03:00,1.33874,R,ugm-3,4.35041,R,ugm-3,6.40311,R,ugm-3
15-01-2018,04:00,1.66526,R,ugm-3,6.01773,R,ugm-3,8.57109,R,ugm-3
15-01-2018,05:00,7.05285,R,ugm-3,14.74780,R,ugm-3,25.56202,R,ugm-3
15-01-2018,06:00,34.90508,R,ugm-3,40.61036,R,ugm-3,94.13074,R,ugm-3
15-01-2018,07:00,82.96894,R,ugm-3,66.38853,R,ugm-3,193.60580,R,ugm-3
15-01-2018,08:00,189.12087,R,ugm-3,96.32279,R,ugm-3,386.30407,R,ugm-3
15-01-2018,09:00,265.42879,R,ugm-3,98.55793,R,ugm-3,505.54306,R,ugm-3
15-01-2018,10:00,228.30337,R,ugm-3,97.75396,R,ugm-3,447.81425,R,ugm-3
15-01-2018,11:00,251.68226,R,ugm-3,90.99812,R,ugm-3,476.90553,R,ugm-3